Newport News, VA

12:25 AM EST on February 22, 2017 (GMT -0500)
Newport News-Williamsburg International

Weather History for KPHF - May, 2013

Change the Weather History Date:

Thursday, May 16, 2013

  Actual Average Record
Temperature  
Mean Temperature 81 °F -  
Max Temperature 91 °F 77 °F 91 °F (1998)
Min Temperature 71 °F 55 °F 41 °F (2016)
Cooling Degree Days 16    
Growing Degree Days 31 (Base 50)    
Moisture  
Dew Point 57 °F    
Average Humidity 47    
Maximum Humidity 66    
Minimum Humidity 30    
Precipitation  
Precipitation 0.00 in - - ()
Sea Level Pressure  
Sea Level Pressure 29.86 in    
Wind  
Wind Speed 10 mph (West)    
Max Wind Speed 20 mph    
Max Gust Speed 29 mph    
Visibility 10 miles    
Events      
Averages and records for this station are not official NWS values.
T = Trace of Precipitation, MM = Missing Value Source: NWS Daily Summary

Daily Weather History Graph

Daily Weather History Graph

Search for Another Location

Airport or City:

Trip Planner

Search our weather history database for the weather conditions in past years. The results will help you decide how hot, cold, wet, or windy it might be!

Date:

Astronomy

May. 16, 2013 Rise Set
Actual Time 5:56 AM EDT 8:08 PM EDT
Civil Twilight 5:27 AM EDT 8:37 PM EDT
Nautical Twilight 4:51 AM EDT 9:13 PM EDT
Astronomical Twilight 4:12 AM EDT 9:52 PM EDT
Moon 11:25 AM EDT (5/16) 12:30 AM EDT (5/16)
Length of Visible Light 15h 10m
Length of Day
14h 11m
Waxing Crescent, 35% of the Moon is Illuminated
May 16
Waxing Crescent
May 18
First Quarter
May 25
Full
May 31
Last Quarter
Jun 8
New

Hourly Weather History & Observations

Time (EDT) Temp. Heat Index Dew Point Humidity Pressure Visibility Wind Dir Wind Speed Gust Speed Precip Events Conditions
12:54 AM 79.0 °F - 57.9 °F 48% 29.83 in 10.0 mi WSW 10.4 mph - N/A   Clear
1:54 AM 78.1 °F - 57.9 °F 50% 29.82 in 10.0 mi WSW 10.4 mph - N/A   Clear
2:54 AM 75.9 °F - 59.0 °F 56% 29.82 in 10.0 mi WSW 9.2 mph - N/A   Clear
3:54 AM 75.0 °F - 59.0 °F 57% 29.82 in 10.0 mi WSW 9.2 mph - N/A   Clear
4:54 AM 72.0 °F - 59.0 °F 64% 29.82 in 10.0 mi WSW 8.1 mph - N/A   Clear
5:54 AM 71.1 °F - 59.0 °F 66% 29.83 in 10.0 mi WSW 9.2 mph - N/A   Clear
6:54 AM 72.0 °F - 59.0 °F 64% 29.85 in 10.0 mi WSW 5.8 mph - N/A   Clear
7:54 AM 75.9 °F - 59.0 °F 56% 29.87 in 10.0 mi WSW 10.4 mph - N/A   Clear
8:54 AM 80.1 °F 80.6 °F 57.9 °F 47% 29.87 in 10.0 mi West 8.1 mph - N/A   Clear
9:54 AM 84.0 °F 83.5 °F 57.9 °F 41% 29.88 in 10.0 mi West 10.4 mph - N/A   Clear
10:54 AM 87.1 °F 85.7 °F 55.9 °F 35% 29.88 in 10.0 mi West 11.5 mph - N/A   Clear
11:54 AM 88.0 °F 85.9 °F 54.0 °F 31% 29.88 in 10.0 mi West 8.1 mph - N/A   Clear
12:54 PM 90.0 °F 88.6 °F 57.0 °F 33% 29.86 in 10.0 mi SW 9.2 mph - N/A   Clear
1:54 PM 91.0 °F 89.2 °F 55.9 °F 30% 29.86 in 10.0 mi WSW 10.4 mph 17.3 mph N/A   Clear
2:54 PM 91.4 °F 89.9 °F 57.2 °F 31% 29.85 in 10.0 mi Variable 5.8 mph - N/A   Clear
3:54 PM 91.9 °F 90.8 °F 57.9 °F 32% 29.83 in 10.0 mi West 10.4 mph - N/A   Clear
4:54 PM 90.0 °F 88.6 °F 57.0 °F 33% 29.83 in 10.0 mi WSW 15.0 mph - N/A   Clear
5:54 PM 87.8 °F 86.5 °F 57.2 °F 35% 29.85 in 10.0 mi WSW 13.8 mph - N/A   Clear
6:45 PM 80.6 °F 80.5 °F 55.4 °F 42% 29.90 in 10.0 mi NNW 19.6 mph 28.8 mph N/A   Mostly Cloudy
6:54 PM 78.1 °F - 55.0 °F 45% 29.89 in 10.0 mi NNW 19.6 mph 27.6 mph N/A   Scattered Clouds
7:54 PM 77.0 °F - 54.0 °F 45% 29.88 in 10.0 mi WSW 9.2 mph - N/A   Clear
8:54 PM 75.0 °F - 57.0 °F 53% 29.90 in 10.0 mi WSW 6.9 mph - N/A   Clear
9:54 PM 73.0 °F - 57.0 °F 57% 29.91 in 10.0 mi WSW 6.9 mph - N/A   Clear
10:54 PM 73.9 °F - 57.0 °F 55% 29.92 in 10.0 mi West 3.5 mph - N/A   Clear
11:54 PM 72.0 °F - 57.0 °F 59% 29.94 in 10.0 mi NNW 4.6 mph - N/A   Clear